Time,TemperatureF,DewpointF,PressureIn,WindDirection,WindDirectionDegrees,WindSpeedMPH,WindSpeedGustMPH,Humidity,HourlyPrecipIn,Conditions,Clouds,dailyrainin,SolarRadiationWatts/m^2,SoftwareType,DateUTC
2013-07-07 00:05:00,52.6,50.3,29.81,NE,45,0.0,0.0,92,0.00,,,0.00,0,Wunderground v.1.15,2013-07-07 07:05:00,
2013-07-07 00:15:00,52.6,50.6,29.81,NE,44,0.0,0.0,93,0.00,,,0.00,0,Wunderground v.1.15,2013-07-07 07:15:00,
2013-07-07 00:25:00,52.6,50.6,29.81,NE,45,0.0,0.0,93,0.00,,,0.00,0,Wunderground v.1.15,2013-07-07 07:25:00,
2013-07-07 00:35:00,52.6,50.6,29.81,NE,45,0.0,0.0,93,0.00,,,0.00,0,Wunderground v.1.15,2013-07-07 07:35:00,
2013-07-07 00:45:00,52.6,50.6,29.81,NE,44,0.0,0.0,93,0.00,,,0.00,0,Wunderground v.1.15,2013-07-07 07:45:00,
2013-07-07 00:55:00,52.6,50.6,29.81,NE,44,0.0,0.0,93,0.00,,,0.00,0,Wunderground v.1.15,2013-07-07 07:55:00,
2013-07-07 01:05:00,52.7,50.7,29.81,NE,45,0.0,0.0,93,0.00,,,0.00,0,Wunderground v.1.15,2013-07-07 08:05:00,
2013-07-07 01:15:00,53.0,51.3,29.81,NE,45,0.0,0.0,94,0.00,,,0.00,0,Wunderground v.1.15,2013-07-07 08:15:00,
2013-07-07 01:25:00,53.2,51.5,29.81,NE,44,0.0,0.0,94,0.00,,,0.00,0,Wunderground v.1.15,2013-07-07 08:25:00,
2013-07-07 01:35:00,53.2,51.5,29.81,NE,44,0.0,0.0,94,0.00,,,0.00,0,Wunderground v.1.15,2013-07-07 08:35:00,
2013-07-07 01:45:00,53.3,51.6,29.81,NE,44,0.0,0.0,94,0.00,,,0.00,0,Wunderground v.1.15,2013-07-07 08:45:00,
2013-07-07 01:55:00,53.3,51.6,29.81,NE,44,0.0,0.0,94,0.00,,,0.00,0,Wunderground v.1.15,2013-07-07 08:55:00,
2013-07-07 02:05:00,53.2,51.5,29.81,NE,44,0.0,0.0,94,0.00,,,0.00,0,Wunderground v.1.15,2013-07-07 09:05:00,
2013-07-07 02:15:00,53.2,51.5,29.81,NE,45,0.0,0.0,94,0.00,,,0.00,0,Wunderground v.1.15,2013-07-07 09:15:00,
2013-07-07 02:25:00,53.2,51.5,29.80,NE,44,0.0,0.0,94,0.00,,,0.00,0,Wunderground v.1.15,2013-07-07 09:25:00,
2013-07-07 02:35:00,53.2,51.5,29.81,NE,44,0.0,0.0,94,0.00,,,0.00,0,Wunderground v.1.15,2013-07-07 09:35:00,
2013-07-07 02:45:00,53.3,51.6,29.80,NE,44,0.0,0.0,94,0.00,,,0.00,0,Wunderground v.1.15,2013-07-07 09:45:00,
2013-07-07 02:55:00,53.2,51.5,29.81,NE,45,0.0,0.0,94,0.00,,,0.00,0,Wunderground v.1.15,2013-07-07 09:55:00,
2013-07-07 03:05:00,53.2,51.5,29.81,NE,44,0.0,0.0,94,0.00,,,0.00,0,Wunderground v.1.15,2013-07-07 10:05:00,
2013-07-07 03:15:00,53.2,51.5,29.80,NE,44,0.0,0.0,94,0.00,,,0.00,0,Wunderground v.1.15,2013-07-07 10:15:00,
2013-07-07 03:25:00,53.3,51.6,29.80,NE,44,0.0,0.0,94,0.00,,,0.00,0,Wunderground v.1.15,2013-07-07 10:25:00,
2013-07-07 03:35:00,53.3,51.6,29.80,NE,44,0.0,0.0,94,0.00,,,0.00,0,Wunderground v.1.15,2013-07-07 10:35:00,
2013-07-07 03:45:00,53.5,51.8,29.81,NE,45,0.0,0.0,94,0.00,,,0.00,0,Wunderground v.1.15,2013-07-07 10:45:00,
2013-07-07 03:55:00,53.5,51.8,29.81,NE,45,0.0,0.0,94,0.00,,,0.00,0,Wunderground v.1.15,2013-07-07 10:55:00,
2013-07-07 04:05:00,53.2,51.5,29.81,NE,44,0.0,0.0,94,0.00,,,0.00,0,Wunderground v.1.15,2013-07-07 11:05:00,
2013-07-07 04:15:00,53.2,51.5,29.81,NE,44,0.0,0.0,94,0.00,,,0.00,0,Wunderground v.1.15,2013-07-07 11:15:00,
2013-07-07 04:25:00,53.1,51.4,29.81,NE,44,0.0,0.0,94,0.00,,,0.00,0,Wunderground v.1.15,2013-07-07 11:25:00,
2013-07-07 04:35:00,53.0,51.3,29.81,NE,45,0.0,0.0,94,0.00,,,0.00,0,Wunderground v.1.15,2013-07-07 11:35:00,
2013-07-07 04:45:00,52.9,51.2,29.81,NE,44,0.0,0.0,94,0.00,,,0.00,0,Wunderground v.1.15,2013-07-07 11:45:00,
2013-07-07 04:55:00,53.0,51.3,29.81,NE,44,0.0,0.0,94,0.00,,,0.00,0,Wunderground v.1.15,2013-07-07 11:55:00,
2013-07-07 05:05:00,53.1,51.4,29.81,NE,44,0.0,0.0,94,0.00,,,0.00,0,Wunderground v.1.15,2013-07-07 12:05:00,
2013-07-07 05:15:00,53.1,51.4,29.81,NE,44,0.0,0.0,94,0.00,,,0.00,0,Wunderground v.1.15,2013-07-07 12:15:00,
2013-07-07 05:25:00,53.1,51.4,29.81,NE,44,0.0,0.0,94,0.00,,,0.00,0,Wunderground v.1.15,2013-07-07 12:25:00,
2013-07-07 05:35:00,53.2,51.5,29.81,NE,44,0.0,0.0,94,0.00,,,0.00,0,Wunderground v.1.15,2013-07-07 12:35:00,
2013-07-07 05:45:00,53.1,51.4,29.81,North,360,0.0,0.0,94,0.00,,,0.00,0,Wunderground v.1.15,2013-07-07 12:45:00,
2013-07-07 05:55:00,53.1,51.4,29.81,North,360,0.0,0.0,94,0.00,,,0.00,0,Wunderground v.1.15,2013-07-07 12:55:00,
2013-07-07 06:05:00,53.1,51.4,29.82,North,360,0.0,0.0,94,0.00,,,0.00,0,Wunderground v.1.15,2013-07-07 13:05:00,
2013-07-07 06:15:00,53.0,51.3,29.83,North,355,0.0,0.0,94,0.00,,,0.00,12,Wunderground v.1.15,2013-07-07 13:15:00,
2013-07-07 06:25:00,53.0,51.3,29.83,North,355,0.0,0.0,94,0.00,,,0.00,18,Wunderground v.1.15,2013-07-07 13:25:00,
2013-07-07 06:35:00,52.9,51.2,29.83,North,355,0.0,0.0,94,0.00,,,0.00,25,Wunderground v.1.15,2013-07-07 13:35:00,
2013-07-07 06:45:00,52.9,51.2,29.83,West,267,0.0,0.0,94,0.00,,,0.00,32,Wunderground v.1.15,2013-07-07 13:45:00,
2013-07-07 06:55:00,52.8,51.1,29.83,West,260,0.0,0.0,94,0.00,,,0.00,39,Wunderground v.1.15,2013-07-07 13:55:00,
2013-07-07 07:05:00,52.7,51.0,29.83,WSW,238,1.0,1.0,94,0.00,,,0.00,54,Wunderground v.1.15,2013-07-07 14:05:00,
2013-07-07 07:15:00,52.7,51.0,29.83,WSW,238,1.0,1.0,94,0.00,,,0.00,63,Wunderground v.1.15,2013-07-07 14:15:00,
2013-07-07 07:25:00,52.6,50.9,29.83,WSW,238,0.0,0.0,94,0.00,,,0.00,63,Wunderground v.1.15,2013-07-07 14:25:00,
2013-07-07 07:35:00,52.6,50.9,29.84,SW,229,0.0,0.0,94,0.00,,,0.00,79,Wunderground v.1.15,2013-07-07 14:35:00,
2013-07-07 07:45:00,52.7,51.0,29.84,SW,229,0.0,0.0,94,0.00,,,0.00,105,Wunderground v.1.15,2013-07-07 14:45:00,
2013-07-07 07:55:00,52.9,51.2,29.84,SW,229,1.0,1.0,94,0.00,,,0.00,113,Wunderground v.1.15,2013-07-07 14:55:00,
2013-07-07 08:05:00,53.3,51.6,29.84,SW,229,1.0,1.0,94,0.00,,,0.00,130,Wunderground v.1.15,2013-07-07 15:05:00,
2013-07-07 08:15:00,53.4,51.7,29.84,SW,229,0.0,0.0,94,0.00,,,0.00,209,Wunderground v.1.15,2013-07-07 15:15:00,
2013-07-07 08:25:00,53.8,52.1,29.84,SW,229,0.0,0.0,94,0.00,,,0.00,185,Wunderground v.1.15,2013-07-07 15:25:00,
2013-07-07 08:35:00,54.4,52.7,29.85,SW,229,0.0,0.0,94,0.00,,,0.00,195,Wunderground v.1.15,2013-07-07 15:35:00,
2013-07-07 08:45:00,54.9,53.2,29.85,SW,230,0.0,0.0,94,0.00,,,0.00,281,Wunderground v.1.15,2013-07-07 15:45:00,
2013-07-07 08:55:00,55.3,53.0,29.85,SW,234,0.0,0.0,92,0.00,,,0.00,192,Wunderground v.1.15,2013-07-07 15:55:00,
2013-07-07 09:05:00,55.7,53.4,29.85,SW,235,0.0,0.0,92,0.00,,,0.00,485,Wunderground v.1.15,2013-07-07 16:05:00,
2013-07-07 09:15:00,56.7,53.8,29.86,SW,235,0.0,0.0,90,0.00,,,0.00,520,Wunderground v.1.15,2013-07-07 16:15:00,
2013-07-07 09:25:00,57.3,53.8,29.86,WSW,250,0.0,0.0,88,0.00,,,0.00,550,Wunderground v.1.15,2013-07-07 16:25:00,
2013-07-07 09:35:00,57.7,53.5,29.85,WSW,250,0.0,0.0,86,0.00,,,0.00,575,Wunderground v.1.15,2013-07-07 16:35:00,
2013-07-07 09:45:00,59.5,54.3,29.85,WSW,250,0.0,0.0,83,0.00,,,0.00,571,Wunderground v.1.15,2013-07-07 16:45:00,
2013-07-07 09:55:00,60.4,53.9,29.85,WSW,252,0.0,3.0,79,0.00,,,0.00,557,Wunderground v.1.15,2013-07-07 16:55:00,
2013-07-07 10:05:00,60.9,54.0,29.85,WSW,254,0.0,0.0,78,0.00,,,0.00,526,Wunderground v.1.15,2013-07-07 17:05:00,
2013-07-07 10:15:00,61.7,54.1,29.85,NW,324,0.0,0.0,76,0.00,,,0.00,526,Wunderground v.1.15,2013-07-07 17:15:00,
2013-07-07 10:25:00,61.8,54.2,29.85,WNW,294,0.0,3.0,76,0.00,,,0.00,554,Wunderground v.1.15,2013-07-07 17:25:00,
2013-07-07 10:35:00,61.8,53.8,29.86,WNW,303,1.0,1.0,75,0.00,,,0.00,622,Wunderground v.1.15,2013-07-07 17:35:00,
2013-07-07 10:45:00,62.2,53.8,29.86,NNW,327,2.0,2.0,74,0.00,,,0.00,719,Wunderground v.1.15,2013-07-07 17:45:00,
2013-07-07 10:55:00,62.7,53.9,29.86,NW,317,4.0,4.0,73,0.00,,,0.00,761,Wunderground v.1.15,2013-07-07 17:55:00,
2013-07-07 11:05:00,63.9,54.3,29.86,NNW,334,2.0,2.0,71,0.00,,,0.00,805,Wunderground v.1.15,2013-07-07 18:05:00,
2013-07-07 11:15:00,64.6,54.2,29.86,NNW,348,2.0,7.0,69,0.00,,,0.00,837,Wunderground v.1.15,2013-07-07 18:15:00,
2013-07-07 11:25:00,65.1,55.1,29.86,West,279,3.0,6.0,70,0.00,,,0.00,856,Wunderground v.1.15,2013-07-07 18:25:00,
2013-07-07 11:35:00,66.0,55.5,29.86,NW,304,3.0,7.0,69,0.00,,,0.00,875,Wunderground v.1.15,2013-07-07 18:35:00,
2013-07-07 11:45:00,66.1,55.6,29.86,NW,317,3.0,8.0,69,0.00,,,0.00,888,Wunderground v.1.15,2013-07-07 18:45:00,
2013-07-07 11:55:00,66.4,55.9,29.86,North,9,4.0,4.0,69,0.00,,,0.00,900,Wunderground v.1.15,2013-07-07 18:55:00,
2013-07-07 12:05:00,67.4,56.5,29.86,North,5,3.0,3.0,68,0.00,,,0.00,921,Wunderground v.1.15,2013-07-07 19:05:00,
2013-07-07 12:15:00,67.5,56.2,29.86,NE,42,5.0,5.0,67,0.00,,,0.00,932,Wunderground v.1.15,2013-07-07 19:15:00,
2013-07-07 12:25:00,68.4,56.6,29.85,NNE,29,4.0,6.0,66,0.00,,,0.00,942,Wunderground v.1.15,2013-07-07 19:25:00,
2013-07-07 12:35:00,68.5,55.8,29.86,NW,318,5.0,5.0,64,0.00,,,0.00,947,Wunderground v.1.15,2013-07-07 19:35:00,
2013-07-07 12:45:00,68.8,55.7,29.85,North,5,4.0,4.0,63,0.00,,,0.00,958,Wunderground v.1.15,2013-07-07 19:45:00,
2013-07-07 12:55:00,69.1,55.1,29.85,North,11,4.0,8.0,61,0.00,,,0.00,962,Wunderground v.1.15,2013-07-07 19:55:00,
2013-07-07 13:05:00,69.6,55.1,29.85,NNE,24,7.0,7.0,60,0.00,,,0.00,970,Wunderground v.1.15,2013-07-07 20:05:00,
2013-07-07 13:15:00,70.5,55.5,29.85,NE,36,6.0,6.0,59,0.00,,,0.00,974,Wunderground v.1.15,2013-07-07 20:15:00,
2013-07-07 13:25:00,71.3,55.8,29.84,North,360,6.0,6.0,58,0.00,,,0.00,977,Wunderground v.1.15,2013-07-07 20:25:00,
2013-07-07 13:35:00,71.3,55.8,29.84,NNE,32,5.0,8.0,58,0.00,,,0.00,842,Wunderground v.1.15,2013-07-07 20:35:00,
2013-07-07 13:45:00,71.2,55.7,29.84,NNW,338,6.0,6.0,58,0.00,,,0.00,976,Wunderground v.1.15,2013-07-07 20:45:00,
2013-07-07 13:55:00,71.4,55.4,29.84,NNE,24,7.0,9.0,57,0.00,,,0.00,972,Wunderground v.1.15,2013-07-07 20:55:00,
2013-07-07 14:05:00,71.7,55.7,29.84,NNW,348,7.0,7.0,57,0.00,,,0.00,970,Wunderground v.1.15,2013-07-07 21:05:00,
2013-07-07 14:15:00,72.7,55.1,29.84,NNE,17,4.0,9.0,54,0.00,,,0.00,958,Wunderground v.1.15,2013-07-07 21:15:00,
2013-07-07 14:25:00,72.6,54.5,29.83,NNW,333,6.0,10.0,53,0.00,,,0.00,949,Wunderground v.1.15,2013-07-07 21:25:00,
2013-07-07 14:35:00,72.6,55.0,29.84,NNE,32,8.0,9.0,54,0.00,,,0.00,942,Wunderground v.1.15,2013-07-07 21:35:00,
2013-07-07 14:45:00,72.0,54.9,29.84,North,5,9.0,9.0,55,0.00,,,0.00,937,Wunderground v.1.15,2013-07-07 21:45:00,
2013-07-07 14:55:00,71.9,54.9,29.84,North,5,7.0,8.0,55,0.00,,,0.00,926,Wunderground v.1.15,2013-07-07 21:55:00,
2013-07-07 15:05:00,71.6,55.1,29.83,North,5,6.0,6.0,56,0.00,,,0.00,911,Wunderground v.1.15,2013-07-07 22:05:00,
2013-07-07 15:15:00,72.4,55.8,29.84,NNE,27,7.0,7.0,56,0.00,,,0.00,896,Wunderground v.1.15,2013-07-07 22:15:00,
2013-07-07 15:25:00,72.7,55.6,29.83,NNE,22,6.0,7.0,55,0.00,,,0.00,874,Wunderground v.1.15,2013-07-07 22:25:00,
2013-07-07 15:35:00,72.1,55.5,29.83,NE,36,7.0,8.0,56,0.00,,,0.00,856,Wunderground v.1.15,2013-07-07 22:35:00,
2013-07-07 15:45:00,72.3,55.7,29.83,NNE,28,7.0,9.0,56,0.00,,,0.00,846,Wunderground v.1.15,2013-07-07 22:45:00,
2013-07-07 15:55:00,71.7,55.2,29.83,NE,44,9.0,9.0,56,0.00,,,0.00,816,Wunderground v.1.15,2013-07-07 22:55:00,
2013-07-07 16:05:00,71.2,56.1,29.83,NE,36,9.0,11.0,59,0.00,,,0.00,803,Wunderground v.1.15,2013-07-07 23:05:00,
2013-07-07 16:15:00,71.0,55.5,29.83,NE,38,8.0,9.0,58,0.00,,,0.00,772,Wunderground v.1.15,2013-07-07 23:15:00,
2013-07-07 16:25:00,70.5,55.5,29.82,NE,44,8.0,8.0,59,0.00,,,0.00,745,Wunderground v.1.15,2013-07-07 23:25:00,
2013-07-07 16:35:00,70.8,55.8,29.82,North,5,8.0,10.0,59,0.00,,,0.00,721,Wunderground v.1.15,2013-07-07 23:35:00,
2013-07-07 16:45:00,70.4,55.4,29.82,NNE,28,8.0,9.0,59,0.00,,,0.00,707,Wunderground v.1.15,2013-07-07 23:45:00,
2013-07-07 16:55:00,70.1,55.6,29.82,NNE,13,8.0,8.0,60,0.00,,,0.00,680,Wunderground v.1.15,2013-07-07 23:55:00,
2013-07-07 17:05:00,69.5,55.5,29.81,North,11,8.0,8.0,61,0.00,,,0.00,652,Wunderground v.1.15,2013-07-08 00:05:00,
2013-07-07 17:15:00,69.1,55.1,29.81,NNE,28,8.0,8.0,61,0.00,,,0.00,626,Wunderground v.1.15,2013-07-08 00:15:00,
2013-07-07 17:25:00,68.9,55.3,29.81,North,5,8.0,8.0,62,0.00,,,0.00,578,Wunderground v.1.15,2013-07-08 00:25:00,
2013-07-07 17:35:00,69.1,55.5,29.81,NNE,22,8.0,9.0,62,0.00,,,0.00,547,Wunderground v.1.15,2013-07-08 00:35:00,
2013-07-07 17:45:00,68.8,55.2,29.81,NNE,13,8.0,8.0,62,0.00,,,0.00,517,Wunderground v.1.15,2013-07-08 00:45:00,
2013-07-07 17:55:00,68.0,54.9,29.81,NNE,32,9.0,9.0,63,0.00,,,0.00,369,Wunderground v.1.15,2013-07-08 00:55:00,
2013-07-07 18:05:00,67.7,55.1,29.81,NNE,30,8.0,9.0,64,0.00,,,0.00,469,Wunderground v.1.15,2013-07-08 01:05:00,
2013-07-07 18:15:00,67.2,54.6,29.81,NE,38,8.0,8.0,64,0.00,,,0.00,432,Wunderground v.1.15,2013-07-08 01:15:00,
2013-07-07 18:25:00,66.7,54.6,29.81,NE,34,8.0,8.0,65,0.00,,,0.00,388,Wunderground v.1.15,2013-07-08 01:25:00,
2013-07-07 18:45:00,65.9,54.2,29.81,NNE,24,8.0,8.0,66,0.00,,,0.00,306,Wunderground v.1.15,2013-07-08 01:45:00,
2013-07-07 18:55:00,65.4,54.2,29.81,NNE,17,7.0,7.0,67,0.00,,,0.00,288,Wunderground v.1.15,2013-07-08 01:55:00,
2013-07-07 19:05:00,64.8,54.0,29.81,NNE,12,8.0,8.0,68,0.00,,,0.00,271,Wunderground v.1.15,2013-07-08 02:05:00,
2013-07-07 19:15:00,64.1,54.1,29.81,NNE,29,8.0,8.0,70,0.00,,,0.00,221,Wunderground v.1.15,2013-07-08 02:15:00,
2013-07-07 19:25:00,63.5,53.5,29.82,NNE,26,8.0,8.0,70,0.00,,,0.00,188,Wunderground v.1.15,2013-07-08 02:25:00,
2013-07-07 19:35:00,62.6,53.1,29.82,NNE,17,8.0,9.0,71,0.00,,,0.00,149,Wunderground v.1.15,2013-07-08 02:35:00,
2013-07-07 19:45:00,61.9,53.5,29.82,NE,34,7.0,7.0,74,0.00,,,0.00,93,Wunderground v.1.15,2013-07-08 02:45:00,
2013-07-07 19:55:00,61.3,53.3,29.82,NE,34,7.0,9.0,75,0.00,,,0.00,23,Wunderground v.1.15,2013-07-08 02:55:00,
2013-07-07 20:05:00,60.9,52.9,29.83,NNE,28,8.0,8.0,75,0.00,,,0.00,21,Wunderground v.1.15,2013-07-08 03:05:00,
2013-07-07 20:15:00,60.9,52.9,29.83,NNE,28,8.0,8.0,75,0.00,,,0.00,21,Wunderground v.1.15,2013-07-08 03:15:00,
2013-07-07 20:25:00,-999.9,-99.9,29.83,North,32767,-999.0,0.0,255,-99.99,,,0.00,,Wunderground v.1.15,2013-07-08 03:25:00,
2013-07-07 20:35:00,-999.9,-99.9,29.84,North,32767,-999.0,0.0,255,-99.99,,,0.00,,Wunderground v.1.15,2013-07-08 03:35:00,
2013-07-07 20:45:00,-999.9,-99.9,29.84,North,32767,-999.0,0.0,255,-99.99,,,0.00,,Wunderground v.1.15,2013-07-08 03:45:00,
2013-07-07 20:55:00,-999.9,-99.9,29.84,North,32767,-999.0,0.0,255,-99.99,,,0.00,,Wunderground v.1.15,2013-07-08 03:55:00,
2013-07-07 21:05:00,-999.9,-99.9,29.84,North,32767,-999.0,0.0,255,-99.99,,,0.00,,Wunderground v.1.15,2013-07-08 04:05:00,
2013-07-07 21:15:00,-999.9,-99.9,29.85,North,32767,-999.0,0.0,255,-99.99,,,0.00,,Wunderground v.1.15,2013-07-08 04:15:00,
2013-07-07 21:25:00,-999.9,-99.9,29.86,North,32767,-999.0,0.0,255,-99.99,,,0.00,,Wunderground v.1.15,2013-07-08 04:25:00,
2013-07-07 21:35:00,-999.9,-99.9,29.86,North,32767,-999.0,0.0,255,-99.99,,,0.00,,Wunderground v.1.15,2013-07-08 04:35:00,
2013-07-07 21:45:00,-999.9,-99.9,29.86,North,32767,-999.0,0.0,255,-99.99,,,0.00,,Wunderground v.1.15,2013-07-08 04:45:00,
2013-07-07 21:55:00,-999.9,-99.9,29.86,North,32767,-999.0,0.0,255,-99.99,,,0.00,,Wunderground v.1.15,2013-07-08 04:55:00,
2013-07-07 22:05:00,-999.9,-99.9,29.87,North,32767,-999.0,0.0,255,-99.99,,,0.00,,Wunderground v.1.15,2013-07-08 05:05:00,
2013-07-07 22:15:00,-999.9,-99.9,29.87,North,32767,-999.0,0.0,255,-99.99,,,0.00,,Wunderground v.1.15,2013-07-08 05:15:00,
2013-07-07 22:25:00,-999.9,-99.9,29.87,North,32767,-999.0,0.0,255,-99.99,,,0.00,,Wunderground v.1.15,2013-07-08 05:25:00,
2013-07-07 22:35:00,-999.9,-99.9,29.87,North,32767,-999.0,0.0,255,-99.99,,,0.00,,Wunderground v.1.15,2013-07-08 05:35:00,
2013-07-07 22:45:00,-999.9,-99.9,29.87,North,32767,-999.0,0.0,255,-99.99,,,0.00,,Wunderground v.1.15,2013-07-08 05:45:00,
2013-07-07 22:55:00,-999.9,-99.9,29.87,North,32767,-999.0,0.0,255,-99.99,,,0.00,,Wunderground v.1.15,2013-07-08 05:55:00,
2013-07-07 23:05:00,53.3,51.0,29.87,NE,40,0.0,0.0,92,0.00,,,0.00,0,Wunderground v.1.15,2013-07-08 06:05:00,
2013-07-07 23:15:00,53.2,50.9,29.87,NE,40,2.0,2.0,92,0.00,,,0.00,0,Wunderground v.1.15,2013-07-08 06:15:00,
2013-07-07 23:25:00,53.2,50.9,29.87,NE,40,0.0,0.0,92,0.00,,,0.00,0,Wunderground v.1.15,2013-07-08 06:25:00,
2013-07-07 23:35:00,53.1,50.8,29.88,NE,41,0.0,0.0,92,0.00,,,0.00,0,Wunderground v.1.15,2013-07-08 06:35:00,
2013-07-07 23:45:00,53.1,51.1,29.88,NE,40,1.0,1.0,93,0.00,,,0.00,0,Wunderground v.1.15,2013-07-08 06:45:00,
2013-07-07 23:55:00,53.0,51.0,29.88,NE,39,1.0,3.0,93,0.00,,,0.00,0,Wunderground v.1.15,2013-07-08 06:55:00,